Location: New Frontier Mobile Home Park
(32.8448°N, 116.9675°W)
Time: 23:11:01
(UTC+00:00)

ATLAS CENTAUR R/B - Pass Details

Date: 14 July 2020
Orbit: 475 x 672 km, 64.7° (Epoch: 13 July)

Event Time Altitude Azimuth Distance (km) Brightness Sun altitude
Rises 04:37:46 0° 322° (NW) 2,527 6.3 -18.2°
Reaches altitude 10° 04:40:00 10° 313° (NW) 1,643 5.0 -18.6°
Maximum altitude 04:43:21 36° 246° (WSW) 773 2.2 -19.1°
Enters shadow 04:44:35 27° 205° (SSW) 941 2.3 -19.3°
